Voltar ao catálogo

IRIDIUM 33 DEB

AtivoPO
NORAD 37550·DEBRIS·🇺🇸 United States

Lançado Sep 14, 1997 de Baikonur Cosmodrome

Loading…

Próximas Passagens (próximas 24 horas)

TLE

AtualizadoSource: Space-Track

Época: Sep 12, 2026, 07:50 UTC

1 37550U 97051XK  26255.32644559  .00003712  00000-0  60479-3 0  9992
2 37550  86.3702 262.1925 0001030 171.6536 188.4698 14.70773700903505

Acompanhe IRIDIUM 33 DEB em tempo real com AllMySat

Download on the App Store